Theta_e
280 283 288 293 298 307 311 324 324 324 324 323 322 321 321 320 320 320 320 320 320 320 319 319 319 318 319 321 321 321 320 321 320 321 320 320 320 319 318 318 317 317 315
278 281 283 289 293 298 302 315 323 324 324 323 322 322 321 320 320 320 320 320 320 320 320 319 319 318 319 320 321 321 320 320 321 321 320 320 320 320 319 318 318 317 317
278 280 282 285 290 294 295 302 311 321 323 323 323 323 322 321 321 321 320 320 320 320 320 320 320 319 319 320 321 321 321 320 321 321 320 320 319 318 318 318 318 318 318
278 279 280 282 285 290 294 294 306 311 321 323 323 323 323 322 322 321 321 321 321 321 320 320 320 320 320 320 321 322 322 321 321 322 322 320 319 318 318 319 318 318 318
277 278 279 281 284 287 292 292 303 303 311 318 322 323 323 322 322 322 321 321 321 321 321 321 320 320 320 321 321 322 322 322 322 322 323 322 321 319 319 320 320 320 319
276 277 278 280 282 285 288 292 296 299 306 309 316 320 323 322 322 322 322 322 322 321 321 321 321 320 321 321 321 321 322 322 322 322 323 323 323 321 321 321 320 320 320
276 277 278 279 280 282 285 288 292 293 301 303 306 313 318 318 318 321 321 322 322 322 322 322 321 321 321 321 320 320 320 321 322 322 323 323 323 323 322 321 321 320 320
276 277 278 278 279 281 283 286 288 290 293 297 299 299 304 305 310 316 319 320 322 322 322 322 321 321 320 320 320 320 320 321 321 322 322 323 322 323 322 321 320 319 319
275 276 277 278 279 280 281 283 285 287 289 290 291 295 295 298 299 309 313 317 319 321 321 321 321 321 321 321 320 320 319 320 322 322 321 321 322 323 321 320 319 318 317
275 276 277 278 279 279 280 282 284 285 286 288 288 288 289 291 291 298 309 312 316 320 321 321 321 321 321 320 320 321 320 320 321 320 320 321 322 322 320 320 319 317 318
275 276 276 277 278 279 281 282 283 284 285 286 286 287 287 287 289 290 293 304 309 315 319 320 320 321 321 321 320 320 321 320 320 320 320 320 320 321 321 320 320 319 317
275 275 276 277 277 279 280 281 283 283 283 284 284 285 285 286 286 289 290 291 295 304 310 312 315 319 320 320 320 320 320 320 320 319 319 318 318 319 321 320 320 319 318
275 275 275 276 276 278 279 280 281 283 282 282 283 284 284 284 286 286 289 292 292 295 297 300 305 311 316 319 320 320 319 319 319 320 318 319 318 319 319 319 318 318 318
275 275 275 275 276 276 278 279 280 281 282 282 282 282 283 283 284 285 286 289 292 294 296 297 298 302 305 309 311 314 316 317 318 319 319 319 318 317 316 315 315 315 314
274 275 275 274 275 276 275 277 279 279 280 281 281 282 282 282 283 285 285 286 288 290 293 294 294 294 295 296 298 300 305 309 315 316 318 317 316 313 312 313 314 314 312
274 274 275 274 274 275 275 276 276 277 277 278 279 281 281 281 282 283 284 284 286 290 289 285 285 285 286 287 289 291 293 294 298 303 306 310 310 310 310 309 311 311 311
273 274 274 274 274 275 275 275 275 275 275 275 277 279 280 279 280 280 282 282 282 285 283 282 281 282 282 283 284 284 286 290 292 292 293 292 295 297 300 301 302 303 300
272 273 274 273 274 274 274 274 274 275 275 274 274 276 277 277 277 278 280 280 281 280 280 280 280 280 280 280 281 282 283 286 287 289 290 291 292 291 292 292 292 293 293
272 273 273 273 273 274 273 274 274 274 274 274 274 274 275 275 276 276 277 278 278 278 278 278 278 278 278 278 279 279 280 281 282 283 284 285 287 288 287 287 287 288 288
272 272 274 274 273 273 273 273 273 273 274 274 274 273 275 274 274 274 274 275 275 276 276 276 276 276 277 277 277 277 278 278 279 280 280 281 282 283 283 283 284 284 284
272 272 273 274 273 272 272 272 272 272 272 273 273 273 275 273 273 273 273 273 273 273 274 274 274 274 274 274 275 275 276 276 276 277 277 278 279 280 280 281 281 281 282
272 272 272 272 272 272 272 272 272 272 272 272 273 272 273 272 272 272 272 272 272 271 271 272 272 272 273 273 274 274 274 274 274 275 275 276 276 277 278 278 279 279 279
272 272 272 272 272 272 272 272 272 272 272 272 272 272 272 272 272 272 271 271 270 270 270 270 270 270 271 271 271 272 272 272 273 273 274 274 275 275 276 276 277 277 278
272 272 272 272 272 272 272 272 272 271 272 272 272 272 272 272 272 272 271 271 270 270 270 270 270 269 269 269 270 270 270 271 271 272 273 273 273 274 274 274 275 276 276
272 273 272 272 272 272 272 272 272 271 271 271 271 272 272 272 272 272 272 271 271 271 270 270 270 269 269 269 269 269 269 270 271 272 272 272 272 273 273 273 274 275 275
272 272 272 271 271 271 271 271 271 271 271 271 271 271 271 271 271 271 271 271 271 271 271 270 270 270 270 270 269 269 269 270 271 271 272 272 272 272 272 273 273 274 275
Wind_Speed
37 31 24 18 7 4 7 22 28 31 34 35 38 37 37 38 35 34 31 29 29 27 25 25 25 24 24 14 12 11 13 13 9 9 13 11 16 17 17 16 14 11 10
33 30 24 17 11 5 1 16 25 29 33 38 39 38 37 37 38 36 33 31 32 30 29 26 26 25 25 21 18 14 14 16 12 13 14 12 14 17 15 17 18 16 13
32 28 26 24 19 14 4 3 14 30 30 34 36 39 38 38 37 36 36 34 33 33 31 30 27 26 25 23 20 17 16 17 14 11 11 12 9 15 16 16 16 18 18
35 31 31 29 23 19 12 8 8 14 29 29 36 36 37 37 37 38 37 36 35 35 34 33 31 30 30 27 25 21 18 18 17 13 13 13 13 14 14 15 14 18 17
29 29 32 29 24 19 15 10 9 1 12 20 26 32 34 36 37 37 38 37 36 34 34 35 35 34 35 32 29 26 22 20 18 17 14 13 15 12 18 15 15 14 15
25 26 30 30 29 24 21 17 13 6 6 7 15 19 26 31 34 41 39 37 37 36 35 35 34 38 40 38 37 36 33 28 23 21 20 19 20 19 16 18 16 14 12
24 28 30 34 30 26 21 19 17 11 10 8 7 5 8 15 24 37 41 37 36 36 36 35 34 34 42 42 41 41 41 40 38 32 27 25 22 23 21 20 20 17 17
24 26 30 30 27 28 26 24 21 19 17 11 11 9 6 2 7 23 39 43 35 36 37 38 37 37 40 40 38 42 42 43 44 42 35 31 27 22 27 28 26 21 17
21 22 25 28 29 29 29 26 20 18 17 18 17 11 9 9 11 12 24 40 38 35 35 37 37 37 38 44 40 35 36 38 44 44 42 39 35 30 27 24 19 18 12
20 20 20 23 25 26 25 24 19 19 19 19 18 17 18 17 25 13 14 20 31 33 31 34 40 39 39 42 45 37 35 36 35 38 41 40 37 34 29 31 28 24 17
17 18 19 20 21 24 24 25 23 20 20 21 20 20 21 19 20 23 20 8 18 20 19 31 34 42 43 44 46 40 38 37 37 36 40 41 38 40 37 36 38 35 26
14 16 16 17 17 21 24 27 26 24 22 21 20 20 22 22 21 22 22 17 7 11 19 20 21 33 42 49 47 46 39 39 35 35 33 34 34 38 45 43 43 41 38
13 13 14 14 15 14 17 21 23 21 21 19 19 18 21 25 25 24 21 17 14 6 0 6 18 28 37 47 50 48 45 41 36 31 33 35 37 42 43 45 42 39 34
10 11 12 12 12 12 12 14 16 22 20 19 18 19 18 22 27 26 25 19 14 9 6 4 1 5 16 22 27 39 39 40 40 37 35 34 32 35 39 42 40 37 32
8 8 9 10 11 11 11 11 13 15 18 17 19 15 19 20 23 20 20 22 16 11 6 11 13 12 13 11 6 8 16 27 31 32 31 33 34 35 35 41 38 34 27
8 7 8 9 9 9 10 8 9 11 13 14 14 17 13 16 19 18 18 22 16 10 15 18 20 20 21 19 18 19 16 12 11 20 24 31 32 31 29 24 24 24 26
4 5 6 6 7 8 9 9 10 9 10 12 14 13 15 16 18 18 15 14 20 13 19 19 19 21 20 20 20 20 21 20 17 21 23 19 21 20 21 19 17 17 15
4 3 3 3 5 6 7 7 8 8 9 10 11 12 14 14 15 17 14 10 14 18 16 16 16 17 19 19 18 19 18 18 21 20 21 21 20 20 21 19 14 15 16
4 3 2 2 3 5 4 4 4 7 8 7 7 8 12 13 12 14 14 13 12 13 13 14 13 13 14 14 14 15 16 17 17 18 17 17 17 17 17 15 13 12 11
6 5 5 3 3 4 5 5 6 4 6 6 7 7 10 10 11 12 12 11 10 10 10 10 11 11 12 12 12 13 13 13 14 14 14 14 13 12 14 12 9 8 8
6 5 5 5 5 4 4 4 5 6 6 6 7 6 8 7 7 7 8 8 8 8 8 7 7 8 9 9 9 10 11 11 12 12 11 11 10 11 10 9 9 8 7
9 7 6 6 5 5 4 4 5 6 7 7 7 7 6 4 4 5 5 5 5 5 6 6 6 6 6 7 7 8 8 9 9 9 9 9 9 8 8 8 7 6 5
10 9 8 8 8 8 9 9 8 8 8 7 8 8 7 6 4 2 3 4 4 4 4 4 4 4 4 5 6 6 6 6 6 6 7 7 8 8 6 6 5 4 4
13 11 11 10 10 10 11 11 10 9 9 8 8 8 8 7 5 4 4 4 4 4 3 3 3 3 4 4 3 3 4 5 6 6 6 6 5 5 4 4 4 2 3
9 11 12 13 13 13 13 13 12 11 10 10 10 9 8 8 7 8 7 7 7 5 4 3 2 2 2 2 2 3 3 4 5 4 3 2 2 2 2 2 1 1 1
14 15 14 13 13 12 13 13 13 12 12 12 11 11 10 9 9 9 10 10 10 10 8 7 5 3 3 2 2 1 1 2 2 1 2 1 0 1 1 2 2 3 4
Wind_Direction
1 3 7 5 7 122 207 190 195 190 189 189 189 189 189 191 194 194 199 201 205 208 210 212 213 214 217 217 218 217 213 209 221 176 190 184 190 197 205 204 210 211 216
357 358 358 22 22 73 345 182 190 198 195 191 191 191 192 195 195 197 199 200 203 205 209 211 215 213 215 220 222 222 216 211 214 195 187 184 195 201 205 209 213 216 219
353 353 3 22 26 28 354 206 192 189 196 197 196 194 193 196 197 200 201 202 204 208 209 210 213 208 211 214 214 215 215 210 208 196 180 188 186 199 202 211 217 223 227
1 354 5 9 18 30 12 318 154 191 185 197 198 199 198 197 200 202 203 205 207 210 210 212 214 212 213 213 211 212 210 207 204 204 194 187 195 200 203 206 215 222 228
3 353 5 9 18 30 37 345 106 203 182 185 195 202 200 200 202 205 207 208 208 211 212 213 215 216 220 217 212 211 209 206 205 205 202 193 195 190 202 208 218 222 228
354 358 2 10 16 19 29 27 47 23 146 130 180 193 204 204 210 208 206 208 210 211 211 214 215 219 226 227 222 222 215 208 207 204 207 207 211 210 206 207 209 208 227
352 4 8 14 6 14 24 40 44 37 67 69 94 169 194 197 210 216 216 210 211 212 213 213 213 217 223 227 228 232 231 233 229 218 215 216 216 213 207 208 208 210 226
2 0 11 6 3 16 20 32 31 39 56 63 77 80 108 30 240 217 219 218 219 217 215 215 214 213 219 217 220 225 227 231 234 231 225 228 226 222 218 223 221 223 228
5 359 0 10 12 14 17 24 32 29 61 56 62 76 67 32 12 243 236 223 223 224 218 218 218 217 216 221 215 214 220 224 234 237 233 236 236 238 236 214 200 187 209
1 358 360 7 15 18 17 23 31 42 52 63 62 61 61 48 25 15 258 243 231 223 221 221 221 221 219 222 217 214 216 218 218 228 229 232 236 238 232 228 214 204 214
357 358 6 7 13 28 29 28 30 41 50 53 51 52 47 36 31 20 29 268 241 230 227 219 221 224 223 226 224 219 219 219 216 218 226 224 227 229 225 223 222 221 210
357 2 12 10 7 19 32 28 30 36 34 35 33 32 36 39 22 23 26 24 347 245 243 250 225 220 227 228 228 227 222 221 216 212 217 220 218 220 224 223 223 223 226
354 5 7 17 15 9 18 20 24 29 34 29 27 22 18 23 23 16 23 27 34 47 45 250 249 243 229 223 228 234 224 218 217 215 215 221 221 220 221 223 223 226 218
347 359 4 14 17 16 20 24 28 25 26 26 23 18 16 19 15 13 13 18 25 34 60 74 124 236 232 220 220 225 226 220 216 219 221 223 219 209 206 209 212 209 214
338 354 359 4 13 18 25 24 30 32 31 24 19 20 18 14 10 7 11 11 14 14 62 76 72 74 79 86 120 178 210 223 221 214 210 207 206 199 203 204 202 202 209
329 349 0 354 1 14 16 16 31 37 33 28 21 20 20 13 7 8 12 16 22 48 65 52 44 45 51 56 65 74 89 101 151 169 185 183 181 185 186 185 195 204 208
294 324 343 355 348 1 14 8 6 18 30 28 25 21 20 12 9 9 13 23 32 58 58 48 46 47 47 57 63 66 71 79 88 100 113 113 131 142 151 154 173 185 159
253 270 298 338 343 350 1 359 356 2 10 7 13 16 12 12 13 14 17 30 36 41 45 46 44 45 49 52 56 59 64 74 83 87 87 96 100 103 103 103 109 120 128
261 274 268 304 324 324 339 345 352 346 350 358 1 11 10 8 15 24 28 38 41 43 43 44 40 43 44 47 48 52 58 59 68 74 77 82 87 99 94 96 94 96 106
252 263 280 292 292 308 318 331 334 335 332 338 349 359 2 9 20 24 32 35 36 39 43 48 44 41 40 43 48 51 50 53 59 65 69 76 81 90 96 97 96 95 95
235 249 250 263 266 273 295 314 320 317 318 318 320 334 360 12 12 23 27 30 35 32 34 36 48 54 50 46 51 57 61 60 60 64 66 68 76 82 92 99 103 104 107
233 240 245 251 256 264 272 287 297 297 303 308 308 311 328 339 359 10 15 25 31 32 34 34 36 51 60 57 59 63 63 64 63 66 69 72 71 74 80 90 99 110 116
230 236 243 250 256 265 275 278 279 279 282 285 292 293 293 291 298 325 348 340 358 22 30 40 39 37 53 68 78 82 80 70 65 68 78 81 77 63 61 65 67 78 88
228 232 243 252 255 263 268 271 274 273 271 267 270 272 274 274 271 271 271 291 308 337 2 21 24 30 38 49 64 84 93 93 88 83 87 83 70 58 58 45 37 23 24
226 238 249 255 257 259 260 259 260 265 265 261 258 260 264 268 265 265 263 265 275 280 292 307 318 342 23 32 35 53 86 107 69 33 37 56 49 43 358 340 328 302 311
251 253 253 251 249 248 247 250 252 254 255 257 256 257 255 256 256 255 257 258 258 260 258 261 266 277 293 314 331 321 298 16 337 317 303 317 22 351 335 308 297 300 294